Date String (YYYY-MM-DD hh:mm:ss) UTC,Instrument flags,absolute air pressure of the measurement (hPa),sample flow rate (lpm),inlet stack bypass flow (lpm),air temperature of the measurement (°C),ambient temperature measured by the external sensor (°C),aerosol sample conditioner tube jacket temperature (°C),OPC LED temperature (°C),internal box temperature (°C),relative humidity of the measurement (%),span deviation,mass concentration of particles derived from Lorenz-Mie calculation of OPC scattering (μg/m³),mass concentration of particles derived from Lorenz-Mie calculation of OPC scattering (μg/m³),mass concentration of particles derived from Lorenz-Mie calculation of OPC scattering (μg/m³)
DateTimeUTC,F1_M11,P_M11,Q1_M11,Q2_M11,T1_M11,T2_M11,T3_M11,T4_M11,T5_M11,U1_M11,ZSPAN_M11,X0_M11,X2_M11,X1_M11
2023-11-18 16:00:00,SystemResetWarning,0829.9,4.99,000.00,023.9,023.2,000.0,032.0,025.4,17.5,0004.7,0015.29,0006.08,0005.47
2023-11-18 16:01:00,SystemResetWarning,0829.9,5.01,000.00,023.9,023.2,000.0,032.0,025.4,17.4,0004.8,0014.51,0006.16,0005.52
2023-11-18 16:02:00,SystemResetWarning,0829.9,4.99,000.00,024.0,023.2,000.0,032.0,025.4,17.3,0004.6,0014.28,0006.20,0005.54
2023-11-18 16:03:00,SystemResetWarning,0829.9,5.00,000.00,024.0,023.3,000.0,032.0,025.5,17.4,0004.5,0013.78,0006.12,0005.50
2023-11-18 16:04:00,SystemResetWarning,0829.9,5.00,000.00,024.0,023.3,000.0,032.1,025.5,17.3,0004.2,0014.83,0006.07,0005.46
2023-11-18 16:05:00,SystemResetWarning,0830.0,5.00,000.00,024.0,023.3,000.0,032.1,025.5,17.0,0004.2,0014.40,0006.07,0005.43
2023-11-18 16:06:00,SystemResetWarning,0829.9,5.00,000.00,024.0,023.3,000.0,032.1,025.5,17.0,0004.2,0014.30,0006.03,0005.42
2023-11-18 16:07:00,SystemResetWarning,0829.9,5.00,000.00,024.0,023.3,000.0,032.1,025.5,16.8,0004.3,0013.72,0006.01,0005.39
2023-11-18 16:08:00,SystemResetWarning,0829.9,4.99,000.00,024.1,023.3,000.0,032.1,025.5,16.9,0003.9,0012.94,0006.00,0005.38
2023-11-18 16:09:00,SystemResetWarning,0829.9,5.00,000.00,024.1,023.4,000.0,032.2,025.5,17.0,0004.0,0012.86,0005.91,0005.31
2023-11-18 16:10:00,SystemResetWarning,0829.9,5.00,000.00,024.1,023.4,000.0,032.2,025.5,16.9,0004.1,0012.62,0005.84,0005.25
2023-11-18 16:11:00,SystemResetWarning,0829.9,5.00,000.00,024.1,023.4,000.0,032.2,025.5,16.7,0003.9,0012.45,0005.86,0005.24
2023-11-18 16:12:00,SystemResetWarning,0829.9,5.00,000.00,024.1,023.4,000.0,032.2,025.5,16.7,0003.2,0012.05,0005.77,0005.17
2023-11-18 16:13:00,SystemResetWarning,0829.9,5.00,000.00,024.1,023.4,000.0,032.2,025.5,16.8,0003.3,0011.56,0005.63,0005.08
2023-11-18 16:14:00,SystemResetWarning,0829.9,5.00,000.00,024.2,023.5,000.0,032.2,025.6,17.0,0003.6,0011.30,0005.57,0005.02
2023-11-18 16:15:00,SystemResetWarning,0829.8,5.00,000.00,024.2,023.5,000.0,032.3,025.6,17.0,0003.6,0010.23,0005.55,0004.98
2023-11-18 16:16:00,SystemResetWarning,0829.8,5.00,000.00,024.2,023.5,000.0,032.3,025.6,17.3,0003.2,0010.77,0005.48,0004.91
2023-11-18 16:17:00,SystemResetWarning,0829.7,5.00,000.00,024.2,023.5,000.0,032.3,025.6,17.3,0003.3,0011.44,0005.50,0004.90
2023-11-18 16:18:00,SystemResetWarning,0829.8,5.01,000.00,024.2,023.5,000.0,032.3,025.6,17.3,0003.0,0011.73,0005.49,0004.88
2023-11-18 16:19:00,SystemResetWarning,0829.8,5.00,000.00,024.2,023.5,000.0,032.3,025.7,17.0,0003.5,0011.60,0005.44,0004.84
2023-11-18 16:20:00,SystemResetWarning,0829.8,5.01,000.00,024.3,023.5,000.0,032.4,025.7,17.0,0003.5,0011.55,0005.41,0004.83
2023-11-18 16:21:00,SystemResetWarning,0829.8,4.99,000.00,024.3,023.6,000.0,032.4,025.7,17.1,0003.6,0011.58,0005.43,0004.83
2023-11-18 16:22:00,SystemResetWarning,0829.8,4.99,000.00,024.3,023.6,000.0,032.4,025.7,17.0,0003.5,0012.70,0005.41,0004.79
2023-11-18 16:23:00,SystemResetWarning,0829.8,5.01,000.00,024.3,023.6,000.0,032.4,025.7,17.0,0004.0,0013.41,0005.39,0004.77
2023-11-18 16:24:00,SystemResetWarning,0829.8,5.00,000.00,024.3,023.6,000.0,032.4,025.7,17.1,0004.0,0014.37,0005.45,0004.79
2023-11-18 16:25:00,SystemResetWarning,0829.7,5.00,000.00,024.3,023.6,000.0,032.4,025.8,17.1,0004.0,0014.81,0005.51,0004.80
2023-11-18 16:26:00,SystemResetWarning,0829.7,5.00,000.00,024.4,023.6,000.0,032.5,025.8,17.0,0004.3,0015.07,0005.52,0004.82
2023-11-18 16:27:00,SystemResetWarning,0829.7,5.00,000.00,024.4,023.7,000.0,032.5,025.9,17.0,0004.5,0014.47,0005.56,0004.86
2023-11-18 16:28:00,SystemResetWarning,0829.7,4.99,000.00,024.4,023.7,000.0,032.5,025.9,16.9,0004.4,0013.90,0005.55,0004.86
2023-11-18 16:29:00,SystemResetWarning,0829.7,5.00,000.00,024.4,023.7,000.0,032.5,025.9,16.9,0004.6,0013.69,0005.56,0004.85
2023-11-18 16:30:00,SystemResetWarning,0829.7,5.00,000.00,024.4,023.7,000.0,032.5,025.9,17.0,0004.7,0013.73,0005.53,0004.83
2023-11-18 16:31:00,SystemResetWarning,0829.7,5.00,000.00,024.4,023.7,000.0,032.6,025.9,16.9,0004.6,0013.84,0005.57,0004.83
2023-11-18 16:32:00,SystemResetWarning,0829.7,5.00,000.00,024.5,023.7,000.0,032.6,025.9,16.8,0004.3,0014.12,0005.59,0004.85
2023-11-18 16:33:00,SystemResetWarning,0829.7,5.01,000.00,024.5,023.7,000.0,032.6,025.9,16.7,0004.0,0013.10,0005.63,0004.89
2023-11-18 16:34:00,SystemResetWarning,0829.7,5.00,000.00,024.5,023.8,000.0,032.6,026.0,16.8,0003.8,0012.12,0005.69,0004.93
2023-11-18 16:35:00,SystemResetWarning,0829.7,5.01,000.00,024.5,023.8,000.0,032.6,026.0,16.8,0003.8,0011.28,0005.69,0004.96
2023-11-18 16:36:00,SystemResetWarning,0829.7,5.00,000.00,024.5,023.8,000.0,032.6,026.0,16.8,0003.9,0011.49,0005.65,0004.98
2023-11-18 16:37:00,SystemResetWarning,0829.7,5.01,000.00,024.6,023.8,000.0,032.6,026.0,16.7,0003.9,0012.26,0005.70,0005.01
2023-11-18 16:38:00,SystemResetWarning,0829.7,5.00,000.00,024.6,023.8,000.0,032.7,026.0,16.7,0004.1,0012.83,0005.70,0005.02
2023-11-18 16:39:00,SystemResetWarning,0829.7,4.99,000.00,024.6,023.9,000.0,032.7,026.1,16.7,0004.2,0012.91,0005.70,0005.04
2023-11-18 16:40:00,SystemResetWarning,0829.6,4.99,000.00,024.6,023.9,000.0,032.7,026.1,16.8,0004.3,0013.10,0005.70,0005.06
2023-11-18 16:41:00,SystemResetWarning,0829.6,4.99,000.00,024.6,023.9,000.0,032.7,026.0,16.7,0004.2,0013.44,0005.71,0005.08
2023-11-18 16:42:00,SystemResetWarning,0829.7,5.00,000.00,024.6,023.9,000.0,032.7,026.1,16.7,0004.0,0013.74,0005.73,0005.11
2023-11-18 16:43:00,SystemResetWarning,0829.7,5.01,000.00,024.6,023.9,000.0,032.8,026.1,16.7,0004.1,0013.62,0005.77,0005.13
2023-11-18 16:44:00,SystemResetWarning,0829.7,5.01,000.00,024.7,023.9,000.0,032.8,026.1,16.6,0004.5,0013.53,0005.76,0005.13
2023-11-18 16:45:00,SystemResetWarning,0829.7,4.99,000.00,024.7,024.0,000.0,032.8,026.1,16.4,0004.7,0013.37,0005.71,0005.13
2023-11-18 16:46:00,SystemResetWarning,0829.7,4.99,000.00,024.7,024.0,000.0,032.8,026.2,16.7,0004.7,0013.36,0005.69,0005.12
2023-11-18 16:47:00,SystemResetWarning,0829.6,5.00,000.00,024.7,024.0,000.0,032.8,026.2,16.6,0004.9,0013.22,0005.73,0005.12
2023-11-18 16:48:00,SystemResetWarning,0829.6,5.00,000.00,024.7,024.0,000.0,032.8,026.2,16.6,0004.7,0012.22,0005.72,0005.11
2023-11-18 16:49:00,SystemResetWarning,0829.6,5.00,000.00,024.7,024.0,000.0,032.8,026.2,16.6,0004.4,0011.38,0005.70,0005.10
2023-11-18 16:50:00,SystemResetWarning,0829.5,5.01,000.00,024.8,024.0,000.0,032.9,026.2,16.4,0004.2,0011.11,0005.74,0005.09
2023-11-18 16:51:00,SystemResetWarning,0829.5,5.00,000.00,024.8,024.0,000.0,032.9,026.2,16.6,0003.9,0011.05,0005.75,0005.08
2023-11-18 16:52:00,SystemResetWarning,0829.5,5.00,000.00,024.8,024.1,000.0,032.9,026.3,16.5,0004.0,0010.89,0005.76,0005.07
2023-11-18 16:53:00,SystemResetWarning,0829.5,5.00,000.00,024.8,024.1,000.0,032.9,026.3,16.5,0004.0,0011.01,0005.78,0005.09
2023-11-18 16:54:00,SystemResetWarning,0829.5,5.00,000.00,024.8,024.1,000.0,032.9,026.3,16.5,0004.3,0011.25,0005.77,0005.10
2023-11-18 16:55:00,SystemResetWarning,0829.5,5.00,000.00,024.9,024.1,000.0,033.0,026.3,16.6,0004.3,0011.61,0005.78,0005.11
2023-11-18 16:56:00,SystemResetWarning,0829.6,4.99,000.00,024.9,024.2,000.0,033.0,026.4,16.5,0004.2,0011.66,0005.77,0005.10
2023-11-18 16:57:00,SystemResetWarning,0829.5,5.00,000.00,024.9,024.2,000.0,033.0,026.4,16.3,0004.3,0011.73,0005.83,0005.09
2023-11-18 16:58:00,SystemResetWarning,0829.5,4.99,000.00,024.9,024.2,000.0,033.0,026.4,16.4,0004.1,0011.81,0005.80,0005.07
2023-11-18 16:59:00,SystemResetWarning,0829.4,5.00,000.00,024.9,024.2,000.0,033.0,026.4,16.3,0004.0,0011.82,0005.79,0005.06
